Presure
184 196 227 257 184 235 240 243 247 268 389 263 341 332 311 280 271 269 269 263 268 266 267 261 263 263 264 254 243 253 268 271 234 275 287 175 256 143 135 130 149 135 128 141 146 132 136
182 208 257 219 213 230 238 270 261 328 419 392 353 338 328 316 312 303 295 243 253 275 279 275 271 268 263 265 273 274 275 270 234 172 277 223 198 178 270 138 235 142 139 139 145 133 130
234 248 202 232 224 234 293 267 280 373 373 399 370 368 358 330 323 315 310 308 301 292 289 287 287 268 269 279 279 283 278 277 281 273 283 240 220 233 231 281 138 139 145 146 160 67 134
221 284 238 234 232 260 292 266 388 358 355 360 331 324 345 378 355 338 327 329 326 313 312 307 294 288 274 281 281 280 275 281 280 288 275 282 288 222 181 215 157 160 192 145 162 136 135
234 243 242 245 224 351 325 470 423 372 359 354 356 344 360 343 343 346 358 390 371 357 349 319 296 285 281 277 277 281 280 278 277 286 280 276 287 291 298 299 295 160 168 195 140 148 151
219 231 162 257 231 377 297 557 473 408 372 365 367 368 357 358 358 364 389 314 334 312 386 402 318 288 280 270 278 286 279 276 282 279 287 280 291 298 143 291 150 160 170 157 145 158 280
286 230 228 267 225 395 265 478 502 449 406 408 388 389 386 388 389 390 387 374 428 421 389 416 417 299 278 281 280 280 279 278 285 287 287 288 293 300 316 312 247 370 148 356 178 145 135
263 261 217 265 270 403 307 308 448 509 468 443 445 438 411 416 420 460 465 442 421 387 403 444 403 339 287 281 279 281 282 275 280 284 249 302 271 345 216 148 351 190 199 171 133 139 150
222 315 218 236 253 290 347 291 388 437 434 440 442 447 458 478 484 489 449 389 372 394 401 389 377 362 302 289 283 283 284 281 284 298 306 271 358 324 335 278 238 153 167 211 141 162 134
246 312 242 229 251 252 391 353 299 379 446 448 459 479 416 404 407 397 379 369 368 367 367 340 338 336 325 303 294 295 294 284 305 302 338 190 309 156 280 255 153 123 131 134 139 121 126
219 237 264 217 239 252 256 364 355 291 300 506 424 394 368 369 357 360 362 363 354 343 336 343 340 340 326 316 302 296 308 309 348 332 143 301 223 282 168 135 122 131 166 123 145 138 172
216 250 313 246 196 236 236 274 365 348 289 291 375 383 364 353 351 350 348 352 349 346 356 346 343 272 340 222 342 323 340 293 310 272 291 232 238 188 132 217 161 169 156 142 161 142 211
222 226 264 243 251 223 211 249 264 363 345 320 272 241 326 374 357 355 343 342 332 338 339 338 254 338 223 213 246 309 284 288 250 256 270 313 146 229 224 164 149 165 174 170 154 255 339
206 195 237 295 220 198 227 215 216 253 323 348 319 282 270 140 294 342 255 335 328 331 326 330 321 313 305 303 286 277 269 142 265 182 159 259 328 311 171 162 171 300 280 317 234 159 153
215 200 249 219 307 219 205 208 207 216 182 332 336 325 306 278 276 270 267 266 284 278 277 279 280 277 277 153 268 253 319 310 210 155 318 195 204 135 164 166 151 156 158 158 172 181 183
195 198 217 228 246 299 197 176 196 213 224 128 270 340 335 277 259 223 209 270 266 221 148 154 225 197 296 280 282 253 161 184 208 165 151 148 163 142 153 239 252 227 299 314 274 263 273
172 194 181 220 202 259 244 227 203 220 191 213 213 277 344 336 336 299 183 169 199 196 157 189 182 170 179 268 154 152 148 152 149 166 282 209 140 240 203 261 306 298 309 287 259 257 267
199 191 187 194 201 187 254 308 231 216 214 196 229 187 135 367 222 191 156 326 318 240 149 141 144 144 148 151 148 224 179 171 293 165 152 244 204 137 143 134 224 138 133 268 266 262 250
168 194 163 180 192 214 201 264 267 232 162 199 222 163 205 173 150 151 142 131 145 131 136 137 186 184 185 182 209 174 174 134 148 233 146 131 145 145 151 130 124 123 126 125 126 125 233
178 183 197 198 189 192 208 252 267 243 220 181 121 190 171 144 149 141 137 134 136 155 103 325 203 309 271 173 171 314 166 137 137 142 133 192 134 135 134 136 125 127 124 118 118 122 240
182 196 180 188 194 172 198 230 206 280 273 127 202 132 137 124 153 142 134 125 188 170 279 167 188 172 174 283 280 312 305 160 154 135 132 135 131 136 263 130 122 116 260 115 110 117 142
195 179 192 171 183 174 213 200 190 238 246 269 186 138 171 130 123 141 140 123 165 163 159 193 262 282 191 298 169 312 196 291 290 248 185 129 261 240 135 267 271 182 112 258 256 150 243
191 156 184 191 178 175 192 205 190 220 244 268 262 210 209 124 120 136 138 123 176 134 199 168 162 179 318 217 185 264 311 183 302 213 273 285 240 179 231 176 225 271 174 224 154 229 255
180 183 180 193 195 187 187 196 221 192 237 232 240 237 238 194 132 131 152 145 147 165 160 191 159 184 298 206 308 199 167 294 224 290 294 232 292 185 225 293 205 172 235 213 264 169 214
163 186 171 190 175 190 176 189 193 205 181 218 203 200 246 136 133 135 151 141 139 132 160 197 165 153 168 195 257 226 276 302 198 304 303 306 138 281 181 295 194 180 232 274 295 174 170
191 183 194 154 196 208 184 193 187 197 181 193 209 215 275 130 237 143 127 144 138 140 149 210 144 181 157 210 151 147 222 108 189 185 199 191 150 304 164 233 239 308 295 251 296 185 245
178 167 187 184 182 162 163 186 192 196 182 204 183 208 207 208 238 165 136 129 127 140 142 184 136 185 155 149 142 132 148 147 145 143 215 219 226 183 229 208 235 228 214 247 178 176 207
159 176 172 190 179 178 189 162 191 203 190 178 193 204 204 183 203 279 138 112 128 130 141 143 134 135 133 146 141 161 147 144 142 170 167 207 172 200 202 203 200 200 192 201 193 195 193
152 163 173 180 163 161 195 168 160 189 202 176 174 200 197 197 237 219 236 201 140 136 141 139 141 139 131 136 134 156 142 143 146 192 209 148 206 205 192 210 200 197 150 198 134 197 192
Wind_Speed
94 97 103 76 81 81 79 73 75 84 62 79 72 76 91 103 104 103 100 96 96 95 96 94 87 85 86 82 81 80 78 74 84 76 72 76 87 65 58 53 69 55 47 53 53 39 35
94 103 80 81 84 84 80 78 74 68 54 62 69 73 74 84 87 93 96 78 81 94 98 94 88 85 86 82 79 79 76 74 82 70 70 89 79 69 79 55 66 61 56 51 55 38 33
103 97 85 79 88 82 85 81 85 62 60 46 49 60 66 73 77 83 87 91 96 95 95 92 88 86 85 84 75 72 69 69 68 69 68 68 83 83 79 78 54 55 63 57 66 17 38
99 70 78 71 79 84 83 85 51 54 68 59 57 56 53 48 58 72 81 86 87 87 89 81 80 76 80 73 72 69 65 63 64 64 66 67 70 80 64 68 65 59 65 57 52 41 39
107 82 73 68 79 86 78 44 41 52 62 68 66 63 60 59 60 59 63 62 58 75 85 80 78 75 72 69 69 68 63 58 62 62 65 64 67 68 65 66 60 66 68 56 47 57 58
100 85 53 85 75 82 82 24 32 57 62 69 74 74 66 66 67 69 58 65 59 60 57 61 78 75 70 69 70 68 58 57 58 58 62 60 63 57 51 53 52 61 62 61 51 65 61
100 85 75 96 76 90 81 43 16 37 45 61 63 68 69 72 70 66 58 54 46 34 38 47 42 73 71 72 66 61 57 55 55 55 56 58 53 53 58 37 43 31 52 39 62 50 31
109 92 79 97 103 94 87 90 39 27 26 41 43 53 66 54 47 40 35 34 20 22 25 28 30 63 71 70 64 62 58 49 51 51 45 51 48 52 42 50 26 53 46 58 28 34 45
102 96 75 79 90 115 93 87 71 38 34 24 23 19 17 6 14 20 34 39 28 18 30 38 38 45 70 71 65 62 56 48 46 52 50 44 33 26 22 27 30 38 53 44 33 56 35
118 105 91 78 94 100 105 98 94 69 28 22 20 20 56 55 52 48 45 43 36 44 38 34 38 45 57 67 61 58 56 42 50 41 41 29 19 37 20 24 34 33 32 34 36 29 29
109 112 98 78 86 107 107 103 103 95 101 31 65 66 57 59 53 52 45 45 45 41 43 40 35 39 47 56 53 46 47 41 32 22 18 11 18 16 36 32 32 31 41 27 33 35 51
110 120 105 98 72 92 102 119 98 99 87 90 66 60 57 57 52 49 47 43 40 35 34 32 26 25 23 21 34 32 23 17 16 13 9 17 17 26 29 21 32 40 30 31 42 40 32
113 111 116 97 97 81 75 107 113 87 89 87 80 67 70 51 53 48 47 45 44 38 39 36 32 28 26 24 25 19 16 13 12 14 11 27 21 27 18 28 23 35 40 41 39 10 29
94 79 108 108 91 72 86 73 76 106 95 76 76 73 69 11 68 56 38 51 47 45 39 37 36 32 28 23 21 18 16 25 9 20 19 27 38 35 25 22 30 22 16 37 13 42 40
98 90 114 99 101 77 69 66 65 75 50 76 71 64 62 60 56 51 51 49 44 41 38 35 29 27 24 27 17 14 18 21 31 14 36 26 22 16 17 21 14 20 27 33 44 46 49
86 87 104 108 107 99 61 47 54 70 81 27 42 59 56 50 48 52 40 36 32 32 33 31 24 23 18 18 26 22 14 17 21 12 13 12 11 10 6 14 13 10 38 46 66 50 62
59 84 56 101 80 104 83 78 60 70 49 67 68 77 53 48 36 33 40 37 43 40 33 35 30 25 25 23 18 15 13 10 11 10 38 16 16 22 4 28 32 33 33 77 47 43 67
80 83 69 70 80 54 97 83 73 64 61 46 74 49 25 32 38 43 34 26 25 25 27 25 23 19 14 11 11 22 12 8 44 7 11 34 28 18 9 20 28 16 11 75 65 60 39
46 77 46 56 67 85 72 90 76 70 27 43 61 27 54 43 34 29 31 28 26 27 26 22 23 21 20 17 19 12 11 18 11 26 12 23 5 5 3 24 23 23 18 17 13 11 43
69 74 77 81 60 61 76 86 88 62 67 31 20 35 28 26 33 29 27 27 22 20 5 19 17 23 23 15 11 35 6 15 15 13 21 20 15 11 15 13 18 16 17 18 16 11 54
63 77 61 71 75 32 65 96 68 84 67 15 40 14 12 9 19 23 22 20 26 21 21 18 21 13 11 24 24 30 42 2 2 14 16 11 13 10 31 16 22 21 58 18 17 17 21
70 62 67 49 61 39 85 58 43 85 66 60 25 16 16 9 9 9 11 11 16 17 17 18 26 16 16 19 7 26 10 25 28 19 11 16 24 18 13 31 33 8 19 66 63 18 50
67 28 61 63 52 38 66 75 44 78 78 73 54 39 36 13 13 5 6 7 13 9 33 11 10 19 23 18 13 15 21 4 21 16 18 22 12 8 13 2 18 33 5 39 17 39 58
59 58 56 68 61 52 55 66 86 42 88 83 75 38 54 22 9 8 3 6 7 8 6 14 8 24 27 21 32 9 1 22 9 17 20 14 17 12 11 21 9 1 22 24 72 4 26
47 58 51 60 55 54 48 56 65 75 31 81 52 53 51 11 9 7 6 3 3 4 2 19 3 7 6 21 36 22 25 27 14 19 17 15 6 18 8 15 3 6 12 33 35 3 2
55 50 69 14 68 71 58 59 60 67 31 40 55 49 63 8 39 14 9 10 9 3 4 23 3 2 1 22 1 2 23 3 8 11 14 15 10 17 9 10 8 10 9 14 21 0 18
45 46 54 51 55 27 29 52 57 57 36 70 26 57 53 57 47 10 14 10 7 11 10 10 6 11 6 6 6 8 9 8 9 10 15 16 19 9 20 11 18 15 12 21 5 7 9
40 47 44 60 51 38 52 16 50 62 53 30 49 68 48 26 40 39 20 9 12 11 14 15 14 13 12 10 11 10 13 14 14 9 10 5 10 6 4 2 2 1 3 2 4 4 6
28 42 40 44 40 35 55 33 16 57 59 42 19 64 49 32 65 35 38 43 23 20 20 21 19 19 16 17 16 12 17 17 15 9 6 18 7 6 7 4 6 7 13 6 15 7 9
Wind_Direction
337 333 328 324 326 316 314 312 314 314 278 291 271 268 265 266 266 265 264 265 262 262 260 260 259 256 255 254 252 253 254 253 245 251 252 233 244 228 226 221 236 230 228 235 239 228 236
338 335 329 327 321 316 314 323 320 309 279 262 263 261 258 259 259 260 259 261 260 258 257 258 255 254 254 255 253 252 251 252 245 232 253 241 236 236 249 228 245 237 235 238 238 227 227
340 338 338 322 319 319 334 329 325 301 288 272 258 257 253 249 251 251 253 253 252 254 255 256 254 253 254 255 252 249 248 250 252 249 252 246 241 240 242 249 233 236 239 240 234 174 233
345 347 340 324 323 336 338 336 295 290 291 282 282 277 263 261 248 246 246 247 246 249 248 244 246 245 250 251 252 248 247 249 251 251 249 254 255 240 235 241 229 239 231 239 232 235 234
348 348 339 338 334 345 346 307 261 266 271 278 274 274 262 264 261 260 262 261 245 242 239 239 238 243 243 245 250 247 245 247 249 251 250 252 255 257 261 263 262 228 229 240 238 239 235
358 351 353 0 343 356 353 335 267 251 260 264 270 271 270 268 267 265 261 249 241 255 249 236 227 234 240 245 245 244 245 245 248 250 252 253 257 261 226 269 230 229 231 231 235 235 243
2 357 352 9 350 5 357 3 296 257 251 266 267 265 269 272 272 270 262 254 262 238 223 244 224 221 231 237 242 244 245 246 250 253 255 256 263 269 276 251 237 256 231 254 227 236 232
1 2 2 13 12 12 10 17 11 8 281 284 281 274 271 278 273 269 254 247 209 183 209 198 189 212 219 230 235 238 240 243 251 256 251 268 257 277 233 227 261 228 234 229 228 231 238
10 6 4 9 17 14 16 22 23 14 8 19 35 25 12 13 101 118 128 130 136 170 178 158 178 201 212 223 229 235 240 245 255 261 269 262 265 254 258 240 235 225 230 231 226 235 227
6 9 11 7 17 23 18 22 30 31 14 16 30 48 94 92 95 106 107 112 107 112 119 155 181 197 208 217 225 233 240 244 259 267 268 219 246 217 233 230 228 223 218 219 226 232 238
11 10 11 17 16 24 25 21 26 35 38 43 92 93 92 91 91 88 93 108 120 130 146 157 171 192 206 213 222 233 244 256 255 233 158 236 216 226 223 205 222 222 238 230 238 242 239
8 7 12 13 20 26 31 27 26 28 37 42 70 84 81 79 86 90 96 105 112 117 131 129 146 151 192 155 220 232 225 188 207 191 200 189 217 195 202 196 227 233 232 233 237 242 244
4 12 12 18 13 23 43 29 31 31 30 33 46 53 58 80 77 80 83 90 94 98 104 113 126 131 126 122 133 151 164 168 176 180 190 146 195 155 174 226 229 239 239 239 246 129 72
14 26 15 16 23 28 27 43 40 32 30 34 34 41 48 57 58 72 81 85 93 94 99 105 107 109 111 120 129 141 158 139 168 168 188 146 123 125 220 237 236 115 115 108 220 252 252
10 22 14 19 19 25 28 37 45 40 30 33 34 32 33 45 51 56 65 67 69 80 86 90 98 108 115 136 134 142 132 123 150 162 130 145 142 191 235 242 244 251 251 253 253 252 252
7 12 12 16 16 19 39 41 48 39 37 357 38 30 28 44 51 52 65 59 65 78 91 86 93 98 115 115 108 116 137 137 148 169 164 177 228 170 239 114 122 214 123 122 133 138 132
26 10 26 11 26 17 23 21 32 35 56 45 49 37 28 25 29 41 78 93 82 89 96 97 100 102 109 109 115 115 122 129 140 185 127 139 155 120 141 101 103 113 123 137 149 153 142
5 4 14 26 27 32 16 19 18 26 36 55 42 76 117 26 78 83 91 37 45 71 94 97 91 90 95 105 122 122 132 140 129 154 139 125 136 144 118 136 109 145 129 147 147 151 164
21 5 19 28 33 20 28 18 15 17 52 41 42 71 55 95 100 96 98 111 91 109 96 94 84 84 84 85 106 104 118 155 149 129 146 172 96 91 26 158 178 184 174 173 158 157 163
0 1 2 8 15 34 23 17 18 17 20 47 106 64 72 104 110 109 109 108 111 103 45 86 105 93 102 92 78 129 96 164 176 151 178 149 169 163 171 152 187 188 195 203 207 205 164
360 5 8 3 8 30 13 8 30 19 14 117 24 97 78 87 78 114 121 124 77 91 86 78 86 66 64 120 130 130 145 54 170 192 199 199 205 208 127 188 198 225 159 225 237 232 206
359 0 3 16 7 31 7 27 28 15 23 12 47 126 55 89 87 71 97 119 95 94 90 88 71 99 96 110 46 134 125 132 139 126 100 218 133 135 223 138 136 192 247 169 169 295 188
354 30 358 360 5 12 7 5 26 11 17 19 10 11 12 130 123 44 61 92 90 107 61 98 87 75 90 91 84 109 121 83 128 113 137 140 150 121 143 106 147 158 93 178 280 184 189
348 350 357 360 357 3 4 3 5 24 11 11 14 9 6 17 150 136 92 123 30 89 91 97 86 57 72 73 82 99 118 97 105 112 126 119 145 90 144 162 130 282 166 176 185 134 194
346 347 349 356 353 355 4 1 2 360 26 6 27 29 9 339 183 187 93 126 26 39 5 63 105 54 95 61 65 59 86 89 79 96 104 121 292 104 66 158 148 27 101 187 198 177 15
341 345 344 13 352 354 351 354 358 358 19 18 10 14 12 272 2 191 218 183 163 239 298 30 326 113 218 41 290 338 53 324 68 41 43 40 274 107 267 78 96 120 162 147 186 250 229
331 334 344 342 346 358 2 353 353 356 4 356 21 4 16 11 17 227 216 233 236 203 197 12 257 24 280 277 295 318 280 278 287 299 35 61 67 2 86 56 98 99 109 111 337 330 82
328 328 334 339 336 337 348 352 347 356 353 4 354 352 3 338 14 3 232 287 256 238 232 208 213 222 235 263 268 265 259 274 289 304 307 29 299 350 346 340 329 329 294 117 302 319 310
319 317 324 331 339 338 340 342 347 345 347 350 1 342 349 16 350 16 15 14 242 242 229 234 231 224 237 231 236 279 249 249 261 292 323 277 309 307 288 298 282 282 277 263 291 243 243